TimeCDT,TemperatureF,Dew PointF,Humidity,Sea Level PressureIn,VisibilityMPH,Wind Direction,Wind SpeedMPH,Gust SpeedMPH,PrecipitationIn,Events,Conditions,WindDirDegrees,DateUTC
12:53 AM,55.9,41.0,57,30.04,10.0,NNE,13.8,25.3,N/A,,Overcast,20,2013-04-24 05:53:00
1:53 AM,53.1,41.0,64,30.06,10.0,North,13.8,23.0,N/A,,Overcast,10,2013-04-24 06:53:00
2:53 AM,51.1,41.0,68,30.07,10.0,NNE,16.1,31.1,N/A,,Overcast,20,2013-04-24 07:53:00
3:53 AM,50.0,39.9,68,30.10,10.0,NNE,15.0,23.0,N/A,,Overcast,20,2013-04-24 08:53:00
5:53 AM,48.0,41.0,77,30.12,10.0,NNE,8.1,19.6,0.00,,Overcast,30,2013-04-24 10:53:00
6:36 AM,48.2,39.2,71,30.13,10.0,NNE,21.9,31.1,0.01,,Overcast,20,2013-04-24 11:36:00
6:53 AM,48.0,39.0,71,30.14,10.0,North,23.0,31.1,0.01,,Overcast,10,2013-04-24 11:53:00
7:53 AM,48.0,36.0,63,30.18,10.0,NNE,16.1,23.0,N/A,,Overcast,20,2013-04-24 12:53:00
8:53 AM,48.0,36.0,63,30.20,10.0,North,15.0,21.9,0.00,,Overcast,10,2013-04-24 13:53:00
9:53 AM,48.9,35.1,59,30.21,10.0,North,16.1,23.0,N/A,,Overcast,10,2013-04-24 14:53:00
10:53 AM,52.0,34.0,50,30.22,10.0,North,18.4,28.8,N/A,,Overcast,360,2013-04-24 15:53:00
11:53 AM,54.0,33.1,45,30.21,10.0,North,13.8,25.3,N/A,,Overcast,10,2013-04-24 16:53:00
12:53 PM,57.9,34.0,41,30.19,10.0,North,13.8,20.7,N/A,,Overcast,10,2013-04-24 17:53:00
1:53 PM,59.0,33.1,38,30.19,10.0,North,15.0,21.9,N/A,,Overcast,360,2013-04-24 18:53:00
2:53 PM,62.1,33.1,34,30.18,10.0,NE,13.8,-,N/A,,Overcast,40,2013-04-24 19:53:00
3:53 PM,61.0,33.1,35,30.17,10.0,North,11.5,-,N/A,,Overcast,10,2013-04-24 20:53:00
4:53 PM,63.0,34.0,34,30.15,10.0,NNE,10.4,-,N/A,,Overcast,20,2013-04-24 21:53:00
5:53 PM,63.0,34.0,34,30.15,10.0,NE,10.4,-,N/A,,Scattered Clouds,50,2013-04-24 22:53:00
6:53 PM,63.0,34.0,34,30.14,10.0,NNE,6.9,-,N/A,,Overcast,30,2013-04-24 23:53:00
7:53 PM,62.1,34.0,35,30.16,10.0,ENE,6.9,-,N/A,,Overcast,70,2013-04-25 00:53:00
8:53 PM,61.0,36.0,39,30.19,10.0,NE,9.2,-,N/A,,Overcast,50,2013-04-25 01:53:00
9:53 PM,60.1,37.0,42,30.20,10.0,NNE,11.5,-,N/A,,Overcast,30,2013-04-25 02:53:00
10:53 PM,61.0,36.0,39,30.23,10.0,NE,9.2,-,N/A,,Overcast,40,2013-04-25 03:53:00
11:53 PM,60.1,37.0,42,30.23,10.0,NNE,6.9,-,N/A,,Overcast,30,2013-04-25 04:53:00